Year,Month,Day,Hour,Minute,Value (Times are PST for temperature in C)
2007,11,17,00,00,8.20
2007,11,17,00,01,8.20
2007,11,17,00,02,8.20
2007,11,17,00,03,8.30
2007,11,17,00,04,8.30
2007,11,17,00,05,8.30
2007,11,17,00,06,8.10
2007,11,17,00,07,8.00
2007,11,17,00,08,7.90
2007,11,17,00,09,7.80
2007,11,17,00,10,7.80
2007,11,17,00,11,7.70
2007,11,17,00,12,7.70
2007,11,17,00,13,7.60
2007,11,17,00,14,7.60
2007,11,17,00,15,7.50
2007,11,17,00,16,7.50
2007,11,17,00,17,7.40
2007,11,17,00,18,7.40
2007,11,17,00,19,7.30
2007,11,17,00,20,7.30
2007,11,17,00,21,7.30
2007,11,17,00,22,7.30
2007,11,17,00,23,7.20
2007,11,17,00,24,7.20
2007,11,17,00,25,7.20
2007,11,17,00,26,7.20
2007,11,17,00,27,7.20
2007,11,17,00,28,7.20
2007,11,17,00,29,7.20
2007,11,17,00,30,7.20
2007,11,17,00,31,7.20
2007,11,17,00,32,7.20
2007,11,17,00,33,7.20
2007,11,17,00,34,7.10
2007,11,17,00,35,7.10
2007,11,17,00,36,7.10
2007,11,17,00,37,7.10
2007,11,17,00,38,7.10
2007,11,17,00,39,7.10
2007,11,17,00,40,7.00
2007,11,17,00,41,7.00
2007,11,17,00,42,7.00
2007,11,17,00,43,7.00
2007,11,17,00,44,7.00
2007,11,17,00,45,7.00
2007,11,17,00,46,7.00
2007,11,17,00,47,6.90
2007,11,17,00,48,6.90
2007,11,17,00,49,6.90
2007,11,17,00,50,6.90
2007,11,17,00,51,6.90
2007,11,17,00,52,6.90
2007,11,17,00,53,6.90
2007,11,17,00,54,6.90
2007,11,17,00,55,6.90
2007,11,17,00,56,6.90
2007,11,17,00,57,6.80
2007,11,17,00,58,6.80
2007,11,17,00,59,6.80
2007,11,17,01,00,6.80
2007,11,17,01,01,6.80
2007,11,17,01,02,6.80
2007,11,17,01,03,6.70
2007,11,17,01,04,6.70
2007,11,17,01,05,6.70
2007,11,17,01,06,6.60
2007,11,17,01,07,6.60
2007,11,17,01,08,6.60
2007,11,17,01,09,6.60
2007,11,17,01,10,6.60
2007,11,17,01,11,6.60
2007,11,17,01,12,6.60
2007,11,17,01,13,6.60
2007,11,17,01,14,6.60
2007,11,17,01,15,6.60
2007,11,17,01,16,6.60
2007,11,17,01,17,6.60
2007,11,17,01,18,6.60
2007,11,17,01,19,6.60
2007,11,17,01,20,6.60
2007,11,17,01,21,6.60
2007,11,17,01,22,6.50
2007,11,17,01,23,6.50
2007,11,17,01,24,6.50
2007,11,17,01,25,6.50
2007,11,17,01,26,6.50
2007,11,17,01,27,6.50
2007,11,17,01,28,6.50
2007,11,17,01,29,6.50
2007,11,17,01,30,6.50
2007,11,17,01,31,6.60
2007,11,17,01,32,6.60
2007,11,17,01,33,6.60
2007,11,17,01,34,6.60
2007,11,17,01,35,6.60
2007,11,17,01,36,6.60
2007,11,17,01,37,6.60
2007,11,17,01,38,6.60
2007,11,17,01,39,6.60
2007,11,17,01,40,6.60
2007,11,17,01,41,6.60
2007,11,17,01,42,6.50
2007,11,17,01,43,6.50
2007,11,17,01,44,6.50
2007,11,17,01,45,6.50
2007,11,17,01,46,6.50
2007,11,17,01,47,6.40
2007,11,17,01,48,6.40
2007,11,17,01,49,6.40
2007,11,17,01,50,6.40
2007,11,17,01,51,6.40
2007,11,17,01,52,6.40
2007,11,17,01,53,6.40
2007,11,17,01,54,6.40
2007,11,17,01,55,6.40
2007,11,17,01,56,6.40
2007,11,17,01,57,6.40
2007,11,17,01,58,6.40
2007,11,17,01,59,6.40
2007,11,17,02,00,6.40
2007,11,17,02,01,6.40
2007,11,17,02,02,6.40
2007,11,17,02,03,6.40
2007,11,17,02,04,6.40
2007,11,17,02,05,6.30
2007,11,17,02,06,6.30
2007,11,17,02,07,6.30
2007,11,17,02,08,6.30
2007,11,17,02,09,6.30
2007,11,17,02,10,6.30
2007,11,17,02,11,6.30
2007,11,17,02,12,6.30
2007,11,17,02,13,6.30
2007,11,17,02,14,6.30
2007,11,17,02,15,6.30
2007,11,17,02,16,6.30
2007,11,17,02,17,6.30
2007,11,17,02,18,6.30
2007,11,17,02,19,6.30
2007,11,17,02,20,6.30
2007,11,17,02,21,6.30
2007,11,17,02,22,6.30
2007,11,17,02,23,6.20
2007,11,17,02,24,6.20
2007,11,17,02,25,6.20
2007,11,17,02,26,6.20
2007,11,17,02,27,6.20
2007,11,17,02,28,6.20
2007,11,17,02,29,6.20
2007,11,17,02,30,6.20
2007,11,17,02,31,6.20
2007,11,17,02,32,6.20
2007,11,17,02,33,6.20
2007,11,17,02,34,6.20
2007,11,17,02,35,6.20
2007,11,17,02,36,6.20
2007,11,17,02,37,6.20
2007,11,17,02,38,6.20
2007,11,17,02,39,6.20
2007,11,17,02,40,6.20
2007,11,17,02,41,6.20
2007,11,17,02,42,6.20
2007,11,17,02,43,6.20
2007,11,17,02,44,6.20
2007,11,17,02,45,6.20
2007,11,17,02,46,6.10
2007,11,17,02,47,6.10
2007,11,17,02,48,6.10
2007,11,17,02,49,6.10
2007,11,17,02,50,6.10
2007,11,17,02,51,6.10
2007,11,17,02,52,6.10
2007,11,17,02,53,6.10
2007,11,17,02,54,6.10
2007,11,17,02,55,6.10
2007,11,17,02,56,6.10
2007,11,17,02,57,6.10
2007,11,17,02,58,6.10
2007,11,17,02,59,6.10
2007,11,17,03,00,6.00
2007,11,17,03,01,6.10
2007,11,17,03,02,6.10
2007,11,17,03,03,6.10
2007,11,17,03,04,6.00
2007,11,17,03,05,6.00
2007,11,17,03,06,6.00
2007,11,17,03,07,6.00
2007,11,17,03,08,6.00
2007,11,17,03,09,6.00
2007,11,17,03,10,6.00
2007,11,17,03,11,6.00
2007,11,17,03,12,6.00
2007,11,17,03,13,5.90
2007,11,17,03,14,5.90
2007,11,17,03,15,5.90
2007,11,17,03,16,5.90
2007,11,17,03,17,5.90
2007,11,17,03,18,5.90
2007,11,17,03,19,5.90
2007,11,17,03,20,5.80
2007,11,17,03,21,5.70
2007,11,17,03,22,5.70
2007,11,17,03,23,5.70
2007,11,17,03,24,5.70
2007,11,17,03,25,5.70
2007,11,17,03,26,5.70
2007,11,17,03,27,5.70
2007,11,17,03,28,5.70
2007,11,17,03,29,5.70
2007,11,17,03,30,5.70
2007,11,17,03,31,5.70
2007,11,17,03,32,5.70
2007,11,17,03,33,5.70
2007,11,17,03,34,5.70
2007,11,17,03,35,5.70
2007,11,17,03,36,5.70
2007,11,17,03,37,5.70
2007,11,17,03,38,5.70
2007,11,17,03,39,5.70
2007,11,17,03,40,5.60
2007,11,17,03,41,5.60
2007,11,17,03,42,5.60
2007,11,17,03,43,5.60
2007,11,17,03,44,5.50
2007,11,17,03,45,5.50
2007,11,17,03,46,5.50
2007,11,17,03,47,5.50
2007,11,17,03,48,5.50
2007,11,17,03,49,5.50
2007,11,17,03,50,5.50
2007,11,17,03,51,5.50
2007,11,17,03,52,5.50
2007,11,17,03,53,5.50
2007,11,17,03,54,5.50
2007,11,17,03,55,5.50
2007,11,17,03,56,5.50
2007,11,17,03,57,5.50
2007,11,17,03,58,5.50
2007,11,17,03,59,5.60
2007,11,17,04,00,5.50
2007,11,17,04,01,5.50
2007,11,17,04,02,5.50
2007,11,17,04,03,5.50
2007,11,17,04,04,5.50
2007,11,17,04,05,5.50
2007,11,17,04,06,5.50
2007,11,17,04,07,5.50
2007,11,17,04,08,5.50
2007,11,17,04,09,5.50
2007,11,17,04,10,5.50
2007,11,17,04,11,5.50
2007,11,17,04,12,5.50
2007,11,17,04,13,5.50
2007,11,17,04,14,5.50
2007,11,17,04,15,5.50
2007,11,17,04,16,5.50
2007,11,17,04,17,5.50
2007,11,17,04,18,5.50
2007,11,17,04,19,5.50
2007,11,17,04,20,5.50
2007,11,17,04,21,5.50
2007,11,17,04,22,5.50
2007,11,17,04,23,5.50
2007,11,17,04,24,5.40
2007,11,17,04,25,5.40
2007,11,17,04,26,5.40
2007,11,17,04,27,5.40
2007,11,17,04,28,5.40
2007,11,17,04,29,5.40
2007,11,17,04,30,5.40
2007,11,17,04,31,5.40
2007,11,17,04,32,5.40
2007,11,17,04,33,5.40
2007,11,17,04,34,5.40
2007,11,17,04,35,5.40
2007,11,17,04,36,5.40
2007,11,17,04,37,5.40
2007,11,17,04,38,5.50
2007,11,17,04,39,5.50
2007,11,17,04,40,5.50
2007,11,17,04,41,5.50
2007,11,17,04,42,5.50
2007,11,17,04,43,5.50
2007,11,17,04,44,5.50
2007,11,17,04,45,5.40
2007,11,17,04,46,5.40
2007,11,17,04,47,5.40
2007,11,17,04,48,5.40
2007,11,17,04,49,5.40
2007,11,17,04,50,5.30
2007,11,17,04,51,5.30
2007,11,17,04,52,5.30
2007,11,17,04,53,5.30
2007,11,17,04,54,5.20
2007,11,17,04,55,5.20
2007,11,17,04,56,5.20
2007,11,17,04,57,5.20
2007,11,17,04,58,5.20
2007,11,17,04,59,5.20
2007,11,17,05,00,5.20
2007,11,17,05,01,5.20
2007,11,17,05,02,5.20
2007,11,17,05,03,5.30
2007,11,17,05,04,5.30
2007,11,17,05,05,5.30
2007,11,17,05,06,5.30
2007,11,17,05,07,5.30
2007,11,17,05,08,5.30
2007,11,17,05,09,5.30
2007,11,17,05,10,5.20
2007,11,17,05,11,5.20
2007,11,17,05,12,5.20
2007,11,17,05,13,5.20
2007,11,17,05,14,5.20
2007,11,17,05,15,5.20
2007,11,17,05,16,5.20
2007,11,17,05,17,5.20
2007,11,17,05,18,5.20
2007,11,17,05,19,5.20
2007,11,17,05,20,5.20
2007,11,17,05,21,5.20
2007,11,17,05,22,5.20
2007,11,17,05,23,5.10
2007,11,17,05,24,5.10
2007,11,17,05,25,5.10
2007,11,17,05,26,5.10
2007,11,17,05,27,5.10
2007,11,17,05,28,5.10
2007,11,17,05,29,5.10
2007,11,17,05,30,5.10
2007,11,17,05,31,5.10
2007,11,17,05,32,5.10
2007,11,17,05,33,5.10
2007,11,17,05,34,5.10
2007,11,17,05,35,5.10
2007,11,17,05,36,5.10
2007,11,17,05,37,5.10
2007,11,17,05,38,5.10
2007,11,17,05,39,5.10
2007,11,17,05,40,5.10
2007,11,17,05,41,5.10
2007,11,17,05,42,5.10
2007,11,17,05,43,5.00
2007,11,17,05,44,5.00
2007,11,17,05,45,4.90
2007,11,17,05,46,4.90
2007,11,17,05,47,4.80
2007,11,17,05,48,4.80
2007,11,17,05,49,4.80
2007,11,17,05,50,4.80
2007,11,17,05,51,4.80
2007,11,17,05,52,4.80
2007,11,17,05,53,4.80
2007,11,17,05,54,4.80
2007,11,17,05,55,4.80
2007,11,17,05,56,4.90
2007,11,17,05,57,4.90
2007,11,17,05,58,4.90
2007,11,17,05,59,4.90
2007,11,17,06,00,4.90
2007,11,17,06,01,4.90
2007,11,17,06,02,4.90
2007,11,17,06,03,4.90
2007,11,17,06,04,4.90
2007,11,17,06,05,4.90
2007,11,17,06,06,4.90
2007,11,17,06,07,4.90
2007,11,17,06,08,4.90
2007,11,17,06,09,4.90
2007,11,17,06,10,5.00
2007,11,17,06,11,5.00
2007,11,17,06,12,4.90
2007,11,17,06,13,5.00
2007,11,17,06,14,5.00
2007,11,17,06,15,5.00
2007,11,17,06,16,5.00
2007,11,17,06,17,5.10
2007,11,17,06,18,5.10
2007,11,17,06,19,5.10
2007,11,17,06,20,5.10
2007,11,17,06,21,5.10
2007,11,17,06,22,5.10
2007,11,17,06,23,5.10
2007,11,17,06,24,5.10
2007,11,17,06,25,5.00
2007,11,17,06,26,5.00
2007,11,17,06,27,5.00
2007,11,17,06,28,5.00
2007,11,17,06,29,5.00
2007,11,17,06,30,5.00
2007,11,17,06,31,5.00
2007,11,17,06,32,5.00
2007,11,17,06,33,5.00
2007,11,17,06,34,4.90
2007,11,17,06,35,4.90
2007,11,17,06,36,4.90
2007,11,17,06,37,4.90
2007,11,17,06,38,4.90
2007,11,17,06,39,4.90
2007,11,17,06,40,4.80
2007,11,17,06,41,4.80
2007,11,17,06,42,4.80
2007,11,17,06,43,4.80
2007,11,17,06,44,4.80
2007,11,17,06,45,4.70
2007,11,17,06,46,4.70
2007,11,17,06,47,4.70
2007,11,17,06,48,4.70
2007,11,17,06,49,4.70
2007,11,17,06,50,4.70
2007,11,17,06,51,4.70
2007,11,17,06,52,4.70
2007,11,17,06,53,4.70
2007,11,17,06,54,4.60
2007,11,17,06,55,4.60
2007,11,17,06,56,4.60
2007,11,17,06,57,4.60
2007,11,17,06,58,4.60
2007,11,17,06,59,4.70
2007,11,17,07,00,4.80
2007,11,17,07,01,4.90
2007,11,17,07,02,4.90
2007,11,17,07,03,5.00
2007,11,17,07,04,4.90
2007,11,17,07,05,4.80
2007,11,17,07,06,4.80
2007,11,17,07,07,4.80
2007,11,17,07,08,4.80
2007,11,17,07,09,4.80
2007,11,17,07,10,4.80
2007,11,17,07,11,4.80
2007,11,17,07,12,4.80
2007,11,17,07,13,4.80
2007,11,17,07,14,4.80
2007,11,17,07,15,4.80
2007,11,17,07,16,4.80
2007,11,17,07,17,4.80
2007,11,17,07,18,4.80
2007,11,17,07,19,4.80
2007,11,17,07,20,4.80
2007,11,17,07,21,4.80
2007,11,17,07,22,4.80
2007,11,17,07,23,4.80
2007,11,17,07,24,4.80
2007,11,17,07,25,4.80
2007,11,17,07,26,4.80
2007,11,17,07,27,4.90
2007,11,17,07,28,4.90
2007,11,17,07,29,4.90
2007,11,17,07,30,5.00
2007,11,17,07,31,5.00
2007,11,17,07,32,5.10
2007,11,17,07,33,5.10
2007,11,17,07,34,5.10
2007,11,17,07,35,5.10
2007,11,17,07,36,5.00
2007,11,17,07,37,5.00
2007,11,17,07,38,5.00
2007,11,17,07,39,5.00
2007,11,17,07,40,4.90
2007,11,17,07,41,4.90
2007,11,17,07,42,4.90
2007,11,17,07,43,4.90
2007,11,17,07,44,4.90
2007,11,17,07,45,4.90
2007,11,17,07,46,4.90
2007,11,17,07,47,4.90
2007,11,17,07,48,4.90
2007,11,17,07,49,5.00
2007,11,17,07,50,5.00
2007,11,17,07,51,5.10
2007,11,17,07,52,5.10
2007,11,17,07,53,5.20
2007,11,17,07,54,5.20
2007,11,17,07,55,5.30
2007,11,17,07,56,5.30
2007,11,17,07,57,5.30
2007,11,17,07,58,5.30
2007,11,17,07,59,5.30
2007,11,17,08,00,5.30
2007,11,17,08,01,5.30
2007,11,17,08,02,5.30
2007,11,17,08,03,5.40
2007,11,17,08,04,5.40
2007,11,17,08,05,5.40
2007,11,17,08,06,5.40
2007,11,17,08,07,5.40
2007,11,17,08,08,5.40
2007,11,17,08,09,5.50
2007,11,17,08,10,5.50
2007,11,17,08,11,5.50
2007,11,17,08,12,5.60
2007,11,17,08,13,5.60
2007,11,17,08,14,5.60
2007,11,17,08,15,5.60
2007,11,17,08,16,5.60
2007,11,17,08,17,5.60
2007,11,17,08,18,5.60
2007,11,17,08,19,5.70
2007,11,17,08,20,5.70
2007,11,17,08,21,5.70
2007,11,17,08,22,5.70
2007,11,17,08,23,5.70
2007,11,17,08,24,5.70
2007,11,17,08,25,5.70
2007,11,17,08,26,5.70
2007,11,17,08,27,5.70
2007,11,17,08,28,5.70
2007,11,17,08,29,5.70
2007,11,17,08,30,5.70
2007,11,17,08,31,5.70
2007,11,17,08,32,5.70
2007,11,17,08,33,5.70
2007,11,17,08,34,5.70
2007,11,17,08,35,5.70
2007,11,17,08,36,5.80
2007,11,17,08,37,5.80
2007,11,17,08,38,5.80
2007,11,17,08,39,5.80
2007,11,17,08,40,5.80
2007,11,17,08,41,5.80
2007,11,17,08,42,5.90
2007,11,17,08,43,5.90
2007,11,17,08,44,5.90
2007,11,17,08,45,5.90
2007,11,17,08,46,5.90
2007,11,17,08,47,5.90
2007,11,17,08,48,5.90
2007,11,17,08,49,6.00
2007,11,17,08,50,6.00
2007,11,17,08,51,6.00
2007,11,17,08,52,6.00
2007,11,17,08,53,6.00
2007,11,17,08,54,6.10
2007,11,17,08,55,6.10
2007,11,17,08,56,6.10
2007,11,17,08,57,6.10
2007,11,17,08,58,6.10
2007,11,17,08,59,6.20
2007,11,17,09,00,6.20
2007,11,17,09,01,6.20
2007,11,17,09,02,6.20
2007,11,17,09,03,6.20
2007,11,17,09,04,6.20
2007,11,17,09,05,6.20
2007,11,17,09,06,6.20
2007,11,17,09,07,6.20
2007,11,17,09,08,6.20
2007,11,17,09,09,6.20
2007,11,17,09,10,6.20
2007,11,17,09,11,6.20
2007,11,17,09,12,6.20
2007,11,17,09,13,6.20
2007,11,17,09,14,6.20
